Weather History for KBDR - October, 2013

Change the Weather History Date:

Saturday, October 26, 2013

  Actual Average Record
Temperature  
Mean Temperature 46 °F 52 °F  
Max Temperature 56 °F 60 °F 74 °F (1963)
Min Temperature 36 °F 43 °F 28 °F (1952)
Degree Days  
Heating Degree Days 19 13  
Month to date heating degree days 163 251  
Since 1 July heating degree days 244 319  
Cooling Degree Days 0 0  
Month to date cooling degree days 22 8  
Year to date cooling degree days 1003 824  
Moisture  
Dew Point 33 °F    
Average Humidity 62    
Maximum Humidity 85    
Minimum Humidity 38    
Precipitation  
Precipitation T in 0.11 in 1.32 in (1958)
Month to date precipitation 0.28 3.09  
Year to date precipitation 29.78 35.47  
Snow  
Snow 0.00 in 0.00 in 0.00 in (2001)
Month to date snowfall 0.0 0.0  
Since 1 July snowfall 0.0 0.0  
Snow Depth 0.00 in    
Sea Level Pressure  
Sea Level Pressure 30.08 in    
Wind  
Wind Speed 13 mph (WSW)    
Max Wind Speed 25 mph    
Max Gust Speed 32 mph    
Visibility 10 miles    
Events      
T = Trace of Precipitation, MM = Missing Value Source: NWS Daily Summary

Daily Weather History Graph

Daily Weather History Graph

Search for Another Location

Airport or City:

Trip Planner

Search our weather history database for the weather conditions in past years. The results will help you decide how hot, cold, wet, or windy it might be!

Date:

Astronomy

Oct. 26, 2013 Rise Set
Actual Time 7:16 AM EDT 5:55 PM EDT
Civil Twilight 6:48 AM EDT 6:23 PM EDT
Nautical Twilight 6:16 AM EDT 6:55 PM EDT
Astronomical Twilight 5:44 AM EDT 7:27 PM EDT
Moon No Moon Rise 1:31 PM EDT (10/26)
Length of Visible Light 11h 35m
Length of Day
10h 38m
Waning Gibbous, 53% of the Moon is Illuminated
Oct 26
Waning Gibbous
Oct 26
Last Quarter
Nov 3
New
Nov 10
First Quarter
Nov 17
Full

Hourly Weather History & Observations

Time (EDT) Temp. Windchill Dew Point Humidity Pressure Visibility Wind Dir Wind Speed Gust Speed Precip Events Conditions
12:52 AM 37.9 °F 35.5 °F 30.0 °F 73% 30.20 in 10.0 mi WNW 3.5 mph - N/A   Clear
1:52 AM 41.0 °F 38.0 °F 33.1 °F 73% 30.20 in 10.0 mi West 4.6 mph - N/A   Clear
2:52 AM 42.1 °F 38.4 °F 34.0 °F 73% 30.20 in 10.0 mi West 5.8 mph - N/A   Clear
3:52 AM 41.0 °F 36.4 °F 35.1 °F 79% 30.19 in 10.0 mi West 6.9 mph - N/A   Clear
4:52 AM 39.9 °F 35.8 °F 34.0 °F 79% 30.19 in 10.0 mi West 5.8 mph - N/A   Clear
5:52 AM 39.9 °F 36.7 °F 35.1 °F 83% 30.19 in 10.0 mi WSW 4.6 mph - N/A   Clear
6:52 AM 39.0 °F 36.8 °F 34.0 °F 82% 30.18 in 10.0 mi West 3.5 mph - N/A   Clear
7:52 AM 37.0 °F 34.5 °F 33.1 °F 86% 30.18 in 10.0 mi West 3.5 mph - N/A   Clear
8:52 AM 45.0 °F 40.6 °F 35.1 °F 68% 30.19 in 10.0 mi West 8.1 mph - N/A   Clear
9:52 AM 48.0 °F - 34.0 °F 58% 30.18 in 10.0 mi WSW 8.1 mph - N/A   Clear
10:52 AM 50.0 °F - 32.0 °F 50% 30.16 in 10.0 mi SW 12.7 mph 19.6 mph N/A   Clear
11:52 AM 53.1 °F - 32.0 °F 45% 30.13 in 10.0 mi SW 16.1 mph 21.9 mph N/A   Clear
12:52 PM 54.0 °F - 28.9 °F 38% 30.10 in 10.0 mi SW 19.6 mph 26.5 mph N/A   Clear
1:52 PM 55.0 °F - 30.0 °F 38% 30.06 in 10.0 mi SW 18.4 mph 26.5 mph N/A   Clear
2:52 PM 54.0 °F - 28.9 °F 38% 30.03 in 10.0 mi SW 15.0 mph 27.6 mph N/A   Partly Cloudy
3:52 PM 55.9 °F - 30.9 °F 39% 30.01 in 10.0 mi SW 18.4 mph 26.5 mph N/A   Clear
4:52 PM 55.0 °F - 30.9 °F 40% 29.98 in 10.0 mi SW 17.3 mph - N/A   Clear
5:52 PM 55.0 °F - 30.0 °F 38% 29.95 in 10.0 mi SW 19.6 mph 31.1 mph N/A   Clear
6:52 PM 54.0 °F - 33.1 °F 45% 29.94 in 10.0 mi SSW 21.9 mph 28.8 mph N/A   Clear
7:52 PM 54.0 °F - 35.1 °F 49% 29.94 in 10.0 mi SW 16.1 mph 25.3 mph N/A   Clear
8:52 PM 54.0 °F - 34.0 °F 47% 29.93 in 10.0 mi SW 18.4 mph 28.8 mph N/A   Clear
9:52 PM 54.0 °F - 35.1 °F 49% 29.93 in 10.0 mi SW 19.6 mph 27.6 mph N/A   Mostly Cloudy
10:52 PM 54.0 °F - 34.0 °F 47% 29.92 in 10.0 mi SW 19.6 mph 24.2 mph N/A   Overcast
11:52 PM 54.0 °F - 35.1 °F 49% 29.90 in 10.0 mi SW 15.0 mph 23.0 mph N/A   Overcast